[[{"header":{"parameterUnit":"m.s-1","parameterCategory":1,"la1":30.2991,"la2":30.254,"lo1":-89.0895,"lo2":-89.0444,"dy":0.0017,"dx":0.0017,"nx":28,"ny":28,"refTime":"2025-01-04T03:00:00:Z","depth":0,"parameterNumber":2,"parameterNumberName":"U-component_of_WINDS"},"data":[0,0,0,0,0,0,0,0,0,0,0,0,0,0,0,0,0,0,0,0,0,0,0,0,0,0,0,0,0,0,0,0,0,0,0,0,0,0,0,0,0,0,0,0,0,0,0,0,0,0,0,0,0,0,0,0,0,0,-4.2478,-4.2479,0,-4.2577,-4.2578,-4.2579,-4.2477,-4.2473,-4.2469,-4.2465,-4.2568,-4.2574,-4.2581,0,0,0,0,0,0,0,0,0,0,0,0,0,-4.22,-4.2206,-4.2478,-4.2479,-4.248,-4.2577,-4.2578,-4.258,-4.2477,-4.2472,-4.2468,-4.2463,-4.2566,-4.2573,-4.2581,0,0,0,0,0,0,0,0,0,0,0,0,0,-4.2312,-4.2207,-4.2477,-4.2441,-4.2438,-4.2577,-4.2578,-4.258,-4.2478,-4.2472,-4.2466,-4.2461,-4.2563,-4.2573,-4.2582,-4.2762,0,0,-4.2612,-4.2616,0,0,0,0,0,0,0,0,-4.2306,-4.2323,-4.2445,-4.2443,-4.2441,-4.2508,-4.2518,-4.2641,-4.248,-4.2463,-4.2465,-4.2458,-4.2553,-4.2563,-4.2595,-4.2767,-4.2771,-4.2613,-4.2619,-4.2623,-4.2626,0,0,0,0,0,0,0,-4.2298,-4.2318,-4.2517,-4.2447,-4.2445,-4.2419,-4.2429,-4.2541,-4.2541,-4.2464,-4.2457,-4.247,-4.2551,-4.2586,-4.2597,-4.2773,-4.2612,-4.2621,-4.2627,-4.2631,-4.3098,-4.3104,0,0,0,0,0,0,-4.2294,-4.2312,-4.2514,-4.252,-4.2357,-4.2429,-4.244,-4.2493,-4.2539,-4.254,-4.2475,-4.2465,-4.2572,-4.2585,-4.26,-4.2815,-4.2623,-4.2632,-4.2637,-4.3092,-4.31,-4.3107,0,0,0,0,0,0,-4.2289,-4.2313,-4.251,-4.2414,-4.2437,-4.2441,-4.2501,-4.2498,-4.2533,-4.2547,-4.2547,-4.2511,-4.2568,-4.2586,-4.2723,-4.2817,-4.2636,-4.2645,-4.3084,-4.3094,-4.3103,-4.3245,0,0,0,0,0,0,-4.2281,-4.2312,-4.238,-4.2416,-4.2443,-4.2631,-4.2507,-4.2504,-4.255,-4.2537,-4.2581,-4.2582,-4.2565,-4.2709,-4.2732,-4.2827,-4.2653,-4.3075,-4.3088,-4.31,-4.3232,-4.3258,-4.3281,0,0,0,0,0,-4.2272,-4.2416,-4.2384,-4.2409,-4.2528,-4.2637,-4.2652,-4.2629,-4.2558,-4.2627,-4.2636,-4.2581,-4.2802,-4.2724,-4.2749,-4.2848,-4.3069,-4.3085,-4.3099,-4.3221,-4.3253,-4.3281,0,0,0,0,0,0,-4.2392,-4.2421,-4.2385,-4.2546,-4.259,-4.2619,-4.2706,-4.2663,-4.2729,-4.2714,-4.2682,-4.2693,-4.2838,-4.2856,-4.2768,-4.3025,-4.2924,-4.2945,-4.3008,-4.3039,-4.3063,-4.3057,-4.2661,0,0,0,0,0,-4.2437,-4.2523,-4.2543,-4.2683,-4.2706,-4.2703,-4.2749,-4.2727,-4.2771,-4.279,-4.2808,-4.2854,-4.2934,-4.2987,-4.3061,-4.3233,-4.3242,-4.3314,-4.3338,-4.3359,-4.3377,-4.3471,-4.3503,-4.3155,-4.3155,-4.3155,0,0,-4.2531,-4.2557,-4.2614,-4.2708,-4.2739,-4.2829,-4.2719,-4.2818,-4.2885,-4.2805,-4.2935,-4.2951,-4.2999,-4.3155,-4.3224,-4.3174,-4.3475,-4.3377,-4.3393,-4.3401,-4.3489,-4.3522,-4.3552,-4.3165,-4.3164,-4.3162,0,0,-4.2749,-4.2777,-4.2897,-4.2931,-4.298,-4.2976,-4.3005,-4.3041,-4.3048,-4.3178,-4.312,-4.3199,-4.3336,-4.3374,-4.3411,-4.3643,-4.3595,-4.3667,-4.3797,-4.3888,-4.3916,-4.394,-4.4024,-4.4054,-4.3686,-4.3686,-4.3686,0,-4.2861,-4.2994,-4.2964,-4.3069,-4.3112,-4.3043,-4.3164,-4.3198,-4.3269,-4.3301,-4.3244,-4.3415,-4.3443,-4.3607,-4.3663,-4.3695,-4.3728,-4.3663,-4.3914,-4.3938,-4.396,-4.404,-4.4071,-4.3695,-4.3694,-4.3693,-4.3692,0,-4.3129,-4.3222,-4.3313,-4.3383,-4.3436,-4.3549,-4.3537,-4.3594,-4.3568,-4.357,-4.3704,-4.3734,-4.3814,-4.385,-4.3825,-4.4011,-4.3979,-4.3919,-4.3817,-4.4002,-4.4077,-4.4107,-4.3707,-4.3704,-4.3701,-4.3699,0,0,-4.3427,-4.3479,-4.3513,-4.3544,-4.3593,-4.3664,-4.3773,-4.3851,-4.3901,-4.3952,-4.4044,-4.4161,-4.4106,-4.4148,-4.4126,-4.4206,-4.439,-4.4136,-4.4137,-4.4183,-4.4598,-4.4644,-4.468,-4.4357,-4.4363,-4.4368,-4.4594,0,-4.3647,-4.3837,-4.3814,-4.3995,-4.4082,-4.4016,-4.4112,-4.4152,-4.4157,-4.4231,-4.4236,-4.4321,-4.4241,-4.4266,-4.4342,-4.4351,-4.4473,-4.4334,-4.4443,-4.4448,-4.4435,-4.4718,-4.4768,-4.498,-4.4623,-4.4628,-4.4631,0,-4.393,-4.3991,-4.4182,-4.4217,-4.4253,-4.4339,-4.4408,-4.4479,-4.4523,-4.4521,-4.4569,-4.4533,-4.4643,-4.4538,-4.4689,-4.4596,-4.4639,-4.465,-4.4658,-4.4668,-4.4552,-4.4738,-4.5047,-4.5079,-4.4676,-4.4673,-4.467,0,-4.413,-4.426,-4.4391,-4.4419,-4.4464,-4.4526,-4.4547,-4.4586,-4.4634,-4.4694,-4.4725,-4.4798,-4.4838,-4.4895,-4.4879,-4.4804,-4.5035,-4.4929,-4.5037,-4.5038,-4.5091,-4.5088,-4.5412,-4.5116,-4.5115,-4.5115,-4.5114,0,-4.438,-4.45,-4.4482,-4.4563,-4.4694,-4.4666,-4.4798,-4.4811,-4.4846,-4.4928,-4.4876,-4.4954,-4.4928,-4.5006,-4.4994,-4.5122,-4.514,-4.5142,-4.5138,-4.5148,-4.5148,-4.5177,-4.5163,-4.5123,-4.5121,-4.512,-4.5118,0,-4.4627,-4.4619,-4.4758,-4.4789,-4.4799,-4.4895,-4.4921,-4.4997,-4.4998,-4.5103,-4.5126,-4.5127,-4.5215,-4.5205,-4.5304,-4.5296,-4.5455,-4.5433,-4.5441,-4.5436,-4.5546,-4.5537,-4.5902,-4.5948,-4.5621,-4.5624,-4.5626,0,-4.4788,-4.4878,-4.4918,-4.497,-4.4995,-4.5079,-4.5127,-4.5103,-4.5156,-4.5213,-4.5283,-4.5366,-4.5432,-4.5576,-4.5586,-4.5661,-4.5641,-4.5763,-4.5652,-4.5659,-4.5644,-4.564,-4.5649,-4.5786,-4.579,-4.5793,-4.5795,0,-4.5074,-4.5066,-4.5138,-4.521,-4.5269,-4.5324,-4.5374,-4.5419,-4.5399,-4.5461,-4.5551,-4.5602,-4.5702,-4.5786,-4.5857,-4.5879,-4.5835,-4.583,-4.5859,-4.5871,-4.5873,-4.5875,-4.5503,-4.5822,-4.5819,-4.5817,-4.5816,-4.5815,-4.5284,-4.5361,-4.5402,-4.5484,-4.5519,-4.5566,-4.564,-4.5649,-4.5723,-4.5803,-4.5784,-4.5886,-4.5927,-4.6018,-4.6048,-4.6127,-4.6082,-4.6124,-4.6135,-4.6147,-4.616,-4.5859,-4.6139,-4.6138,-4.6138,-4.6137,-4.6137,0,-4.5569,-4.5591,-4.5667,-4.5738,-4.5803,-4.5755,-4.5807,-4.5865,-4.5955,-4.5997,-4.6063,-4.6166,-4.6247,-4.6263,-4.634,-4.6401,-4.6382,-4.6422,-4.6418,-4.6424,-4.6195,-4.6163,-4.6436,-4.6436,-4.6436,-4.6435,-4.6435,-4.6435,-4.5725,-4.5854,-4.585,-4.5996,-4.6018,-4.6117,-4.6151,-4.6195,-4.6229,-4.6346,-4.6413,-4.6423,-4.6455,-4.6534,-4.6607,-4.6609,-4.6641,-4.6689,-4.6684,-4.647,-4.644,-4.6412,-4.6381,-4.6696,-4.6696,-4.6906,-4.6908,-4.691]},{"header":{"parameterUnit":"m.s-1","parameterCategory":1,"la1":30.2991,"la2":30.254,"lo1":-89.0895,"lo2":-89.0444,"dy":0.0017,"dx":0.0017,"nx":28,"ny":28,"refTime":"2025-01-04T03:00:00:Z","depth":0,"parameterNumber":3,"parameterNumberName":"V-component_of_WINDS"},"data":[0,0,0,0,0,0,0,0,0,0,0,0,0,0,0,0,0,0,0,0,0,0,0,0,0,0,0,0,0,0,0,0,0,0,0,0,0,0,0,0,0,0,0,0,0,0,0,0,0,0,0,0,0,0,0,0,0,0,-3.9787,-3.9787,0,-3.9847,-3.9847,-3.9848,-3.9785,-3.9782,-3.978,-3.9778,-3.9838,-3.9842,-3.9846,0,0,0,0,0,0,0,0,0,0,0,0,0,-3.9615,-3.9618,-3.9786,-3.9787,-3.9788,-3.9847,-3.9847,-3.9848,-3.9785,-3.9782,-3.9779,-3.9777,-3.9837,-3.9841,-3.9846,0,0,0,0,0,0,0,0,0,0,0,0,0,-3.9684,-3.9619,-3.9786,-3.9764,-3.9762,-3.9846,-3.9847,-3.9848,-3.9786,-3.9782,-3.9779,-3.9775,-3.9835,-3.9841,-3.9847,-3.9956,0,0,-3.9865,-3.9867,0,0,0,0,0,0,0,0,-3.968,-3.969,-3.9766,-3.9765,-3.9764,-3.9805,-3.9809,-3.9884,-3.9787,-3.9777,-3.9778,-3.9773,-3.983,-3.9836,-3.9855,-3.9959,-3.9961,-3.9865,-3.9869,-3.9871,-3.9873,0,0,0,0,0,0,0,-3.9675,-3.9687,-3.981,-3.9767,-3.9766,-3.975,-3.9755,-3.9823,-3.9823,-3.9777,-3.9773,-3.9781,-3.9828,-3.985,-3.9856,-3.9962,-3.9865,-3.987,-3.9874,-3.9876,-4.0157,-4.016,0,0,0,0,0,0,-3.9673,-3.9683,-3.9808,-3.9812,-3.9712,-3.9756,-3.9762,-3.9795,-3.9822,-3.9823,-3.9784,-3.9778,-3.9842,-3.9849,-3.9858,-3.9987,-3.9871,-3.9876,-3.988,-4.0153,-4.0157,-4.0162,0,0,0,0,0,0,-3.967,-3.9685,-3.9806,-3.9747,-3.9761,-3.9763,-3.98,-3.9798,-3.9819,-3.9827,-3.9827,-3.9806,-3.9839,-3.985,-3.9932,-3.9988,-3.9879,-3.9884,-4.0148,-4.0154,-4.016,-4.0246,0,0,0,0,0,0,-3.9665,-3.9684,-3.9726,-3.9748,-3.9764,-3.988,-3.9804,-3.9802,-3.983,-3.9822,-3.9848,-3.9848,-3.9837,-3.9923,-3.9938,-3.9994,-3.9889,-4.0143,-4.0151,-4.0158,-4.0238,-4.0254,-4.0267,0,0,0,0,0,-3.9659,-3.9748,-3.9729,-3.9744,-3.9817,-3.9883,-3.9892,-3.9878,-3.9835,-3.9876,-3.9881,-3.9847,-3.9979,-3.9932,-3.9948,-4.0007,-4.0139,-4.0148,-4.0157,-4.0231,-4.0251,-4.0267,0,0,0,0,0,0,-3.9733,-3.9751,-3.9729,-3.9828,-3.9855,-3.9872,-3.9925,-3.9899,-3.9938,-3.9929,-3.9909,-3.9915,-4.0002,-4.0012,-3.996,-4.0113,-4.0052,-4.0065,-4.0103,-4.0122,-4.0136,-4.0132,-3.9894,0,0,0,0,0,-3.976,-3.9813,-3.9826,-3.9911,-3.9926,-3.9923,-3.9951,-3.9938,-3.9964,-3.9975,-3.9986,-4.0012,-4.0059,-4.0091,-4.0135,-4.0239,-4.0243,-4.0287,-4.0302,-4.0314,-4.0325,-4.0379,-4.0399,-4.0191,-4.0191,-4.0191,0,0,-3.9818,-3.9834,-3.9869,-3.9927,-3.9945,-4.0,-3.9933,-3.9994,-4.0033,-3.9984,-4.0062,-4.0071,-4.0099,-4.0192,-4.0233,-4.0203,-4.0383,-4.0325,-4.0335,-4.0339,-4.039,-4.041,-4.0428,-4.0197,-4.0196,-4.0195,0,0,-3.9951,-3.9969,-4.0042,-4.0062,-4.0092,-4.0089,-4.0107,-4.0128,-4.0132,-4.021,-4.0174,-4.0221,-4.0303,-4.0324,-4.0346,-4.0485,-4.0455,-4.05,-4.0578,-4.0631,-4.0648,-4.0662,-4.0711,-4.0729,-4.0511,-4.0511,-4.0511,0,-4.0019,-4.01,-4.0083,-4.0146,-4.0172,-4.013,-4.0203,-4.0223,-4.0265,-4.0284,-4.0249,-4.0351,-4.0367,-4.0464,-4.0498,-4.0517,-4.0536,-4.0497,-4.0647,-4.0661,-4.0674,-4.0721,-4.0739,-4.0516,-4.0516,-4.0515,-4.0515,0,-4.0182,-4.0238,-4.0294,-4.0336,-4.0368,-4.0436,-4.0428,-4.0462,-4.0446,-4.0446,-4.0526,-4.0543,-4.0589,-4.0611,-4.0596,-4.0706,-4.0686,-4.065,-4.0588,-4.0699,-4.0743,-4.0761,-4.0524,-4.0522,-4.0521,-4.0519,0,0,-4.0364,-4.0395,-4.0415,-4.0433,-4.0462,-4.0505,-4.057,-4.0616,-4.0645,-4.0676,-4.0729,-4.0799,-4.0765,-4.079,-4.0776,-4.0823,-4.0931,-4.078,-4.078,-4.0807,-4.1053,-4.108,-4.1101,-4.0911,-4.0915,-4.0917,-4.105,0,-4.0497,-4.0611,-4.0597,-4.0706,-4.0757,-4.0717,-4.0774,-4.0797,-4.0799,-4.0843,-4.0844,-4.0894,-4.0846,-4.086,-4.0905,-4.0909,-4.098,-4.0899,-4.0961,-4.0963,-4.0955,-4.1124,-4.1153,-4.1278,-4.1067,-4.107,-4.1072,0,-4.0668,-4.0704,-4.0819,-4.0839,-4.086,-4.0911,-4.0951,-4.0993,-4.1018,-4.1016,-4.1043,-4.1021,-4.1085,-4.1022,-4.111,-4.1055,-4.1079,-4.1085,-4.1089,-4.1095,-4.1025,-4.1134,-4.1318,-4.1336,-4.1099,-4.1097,-4.1095,0,-4.0789,-4.0866,-4.0944,-4.0961,-4.0986,-4.1023,-4.1035,-4.1057,-4.1085,-4.1119,-4.1137,-4.1179,-4.1201,-4.1234,-4.1223,-4.1178,-4.1313,-4.1249,-4.1312,-4.1313,-4.1343,-4.1341,-4.1533,-4.1359,-4.1358,-4.1358,-4.1358,0,-4.0939,-4.101,-4.0999,-4.1047,-4.1125,-4.1107,-4.1185,-4.1192,-4.1211,-4.1259,-4.1227,-4.1272,-4.1255,-4.1299,-4.1291,-4.1364,-4.1375,-4.1375,-4.1372,-4.1378,-4.1378,-4.1393,-4.1384,-4.1363,-4.1362,-4.1361,-4.136,0,-4.1087,-4.1082,-4.1165,-4.1182,-4.1188,-4.1244,-4.1258,-4.1303,-4.1302,-4.1363,-4.1376,-4.1375,-4.1425,-4.1417,-4.1473,-4.1467,-4.1559,-4.1546,-4.1551,-4.1548,-4.1611,-4.1605,-4.182,-4.1847,-4.1656,-4.1657,-4.1659,0,-4.1184,-4.1238,-4.126,-4.129,-4.1305,-4.1354,-4.1382,-4.1366,-4.1397,-4.1429,-4.1469,-4.1516,-4.1554,-4.1636,-4.1639,-4.1681,-4.1668,-4.174,-4.1674,-4.1678,-4.1669,-4.1666,-4.1671,-4.1754,-4.1756,-4.1758,-4.1759,0,-4.1355,-4.135,-4.1392,-4.1433,-4.1468,-4.15,-4.1528,-4.1554,-4.154,-4.1576,-4.1627,-4.1656,-4.1713,-4.176,-4.1799,-4.181,-4.1783,-4.178,-4.1796,-4.1803,-4.1804,-4.1804,-4.1586,-4.1775,-4.1773,-4.1772,-4.1771,-4.1771,-4.148,-4.1526,-4.1549,-4.1596,-4.1616,-4.1643,-4.1685,-4.169,-4.1732,-4.1777,-4.1765,-4.1823,-4.1845,-4.1895,-4.191,-4.1955,-4.1928,-4.1952,-4.1959,-4.1965,-4.1972,-4.1797,-4.1962,-4.1961,-4.1961,-4.196,-4.196,0,-4.1649,-4.1662,-4.1706,-4.1747,-4.1784,-4.1754,-4.1784,-4.1817,-4.1868,-4.1892,-4.1929,-4.1987,-4.2032,-4.2039,-4.2081,-4.2115,-4.2104,-4.2127,-4.2124,-4.2127,-4.1994,-4.1975,-4.2136,-4.2136,-4.2136,-4.2136,-4.2136,-4.2136,-4.1742,-4.1817,-4.1814,-4.1899,-4.191,-4.1967,-4.1986,-4.2011,-4.2029,-4.2096,-4.2133,-4.2137,-4.2154,-4.2197,-4.2237,-4.2237,-4.2254,-4.2283,-4.2279,-4.2154,-4.2137,-4.212,-4.2102,-4.2287,-4.2287,-4.2408,-4.2409,-4.241]}]]